Location: Apthorp Dam
(44.3084°N, 71.7462°W)
Time: 01:58:24
(UTC+00:00)

ARIANE 6 FM1 Upper Stage - Visible Passes

Search period start: 15 December 2025 00:00
Search period end: 25 December 2025 00:00
Orbit: 522 x 611 km, 62.0° (Epoch: 14 December)

Date Brightness Start Highest point End Pass type
(mag) Time Alt. Az. Time Alt. Az. Time Alt. Az.
15 Dec 5.8 09:44:34 10° SE 09:46:29 13° ESE 09:48:22 10° E visible
15 Dec 2.5 11:20:59 10° SW 11:25:01 70° NW 11:28:59 10° NE visible
16 Dec 5.2 09:43:46 10° SSE 09:46:43 19° ESE 09:49:37 10° ENE visible
16 Dec 2.8 11:21:32 10° WSW 11:25:27 48° NW 11:29:19 10° NNE visible
17 Dec 4.5 09:44:07 14° S 09:46:58 28° ESE 09:50:26 10° ENE visible
17 Dec 3.2 11:22:13 10° WSW 11:25:55 34° NW 11:29:35 10° NNE visible
18 Dec 3.7 09:46:38 39° SSE 09:47:15 42° ESE 09:51:03 10° NE visible
18 Dec 3.6 11:23:02 10° W 11:26:26 25° NW 11:29:47 10° NNE visible
19 Dec 3.3 09:48:23 50° ENE 09:48:23 50° ENE 09:51:32 10° NE visible
19 Dec 4.0 11:24:29 12° WNW 11:26:58 20° NW 11:29:55 10° NNE visible
20 Dec 3.9 09:49:43 32° NE 09:49:43 32° NE 09:51:56 10° NE visible
20 Dec 4.3 11:25:48 12° WNW 11:27:33 15° NNW 11:29:58 10° N visible
21 Dec 4.5 09:50:46 21° NNE 09:50:46 21° NNE 09:52:15 10° NNE visible
21 Dec 4.5 11:26:50 11° NW 11:28:09 12° NNW 11:29:52 10° N visible
22 Dec 4.9 09:51:37 16° NNE 09:51:37 16° NNE 09:52:30 10° NNE visible
22 Dec 4.7 11:28:26 10° NNW 11:28:46 10° NNW 11:29:07 10° NNW visible
23 Dec 5.1 09:52:20 12° NNE 09:52:20 12° NNE 09:52:42 10° NNE visible
